Current weather by "City, St" or "zip code"  
 

Current Conditions: Fort Lauderdale/Hollywood International Airport, FL

Mostly Cloudy


81.0 F

Last Updated on Oct 24 2020, 9:53 pm EDT
Humidity: 91%
Wind Speed: E 9.2 mph
Barometer 29.88 in
Dewpoint: 78.1 F
Visibility: 10.00 mi
Precip: --
Heat Index: 89 F
Wind Chill: NA
Current conditions at:

Fort Lauderdale/Hollywood International Airport, FL (KFLL)

Lat: 26.07874 Lon: 80.1622

Local Radar Image active severe weather and emergency alerts image image weather storm and storm spotter reports image weather observation monitoring service image
Local
Radar
Active
Alerts
Storm Reports Obs
Monitoring

Sign-up For Email & Text Message Weather Alert Notification Services



Advertise Here

Observation History for Fort Lauderdale/Hollywood International Airport, FL


Time Wind
(mph)
Vis
(mi)
Weather Precip (in) Temperature (F) Relative
Humidity
Wind
Chill
(F)
Heat
Index
(F)
Pressure
Air Dwpt altimeter
(in)
sea level
(mb)
Rmks
9:53 pm EDT E 9.2 10.00 Mostly Cloudy -- 81.0 78.1 91% NA 89 29.88 1011.6
8:53 pm EDT SE 4.6 10.00 Mostly Cloudy Trace 80.0 79.0 97% NA 87 29.88 1011.6
7:53 pm EDT SE 8.1 10.00 Mostly Cloudy -- 80.0 78.1 94% NA 86 29.86 1010.9
6:53 pm EDT SE 9.2 10.00 Mostly Cloudy 00.03 79.0 77.0 94% NA NA 29.85 1010.8
5:53 pm EDT SE 11.5 9.00 Rain 00.01 79.0 78.1 97% NA NA 29.84 1010.5
4:53 pm EDT SE 13.8 10.00 Mostly Cloudy -- 83.0 75.9 79% NA 91 29.83 1010.0
3:53 pm EDT E 17.3 10.00 Mostly Cloudy -- 84.0 77.0 80% NA 94 29.84 1010.5
2:53 pm EDT E 16.1 10.00 Mostly Cloudy -- 85.0 77.0 77% NA 96 29.85 1010.8
1:53 pm EDT E 16.1 10.00 Mostly Cloudy -- 85.0 75.9 75% NA 94 29.88 1011.7
12:53 pm EDT E 15.0 10.00 Mostly Cloudy -- 86.0 75.0 70% NA 95 29.90 1012.6
11:53 am EDT E 13.8 10.00 Mostly Cloudy -- 86.0 73.9 67% NA 94 29.93 1013.6
10:53 am EDT E 15.0 10.00 Mostly Cloudy -- 85.0 73.0 68% NA 92 29.94 1013.7
9:53 am EDT E 16.1 10.00 Mostly Cloudy -- 84.0 73.9 72% NA 91 29.94 1013.8
8:53 am EDT E 13.8 10.00 Mostly Cloudy -- 81.0 73.9 79% NA 86 29.94 1013.8
7:53 am EDT E 8.1 10.00 Partly Cloudy -- 80.0 73.9 82% NA 84 29.91 1012.9
6:53 am EDT E 12.7 10.00 Mostly Cloudy -- 80.0 73.9 82% NA 84 29.91 1012.9
5:53 am EDT E 12.7 10.00 Mostly Cloudy -- 80.0 73.9 82% NA 84 29.90 1012.5
4:53 am EDT E 10.4 10.00 Partly Cloudy -- 79.0 73.0 82% NA NA 29.90 1012.4
3:53 am EDT E 10.4 10.00 A Few Clouds -- 80.0 73.0 79% NA 84 29.90 1012.5
2:53 am EDT E 10.4 10.00 Mostly Cloudy -- 80.0 73.0 79% NA 84 29.91 1012.8
1:53 am EDT E 13.8 10.00 Mostly Cloudy -- 81.0 73.0 77% NA 86 29.92 1013.0
12:53 am EDT SE 9.2 10.00 Mostly Cloudy -- 81.0 73.9 79% NA 86 29.93 1013.6
11:53 pm EDT E 15.0 10.00 A Few Clouds -- 81.0 73.0 77% NA 86 29.94 1013.8
10:53 pm EDT E 12.7 10.00 Partly Cloudy -- 81.0 73.0 77% NA 86 29.95 1014.0

Regional Weather Observation


Fort Lauderdale/Hollywood International Airport, FL (KFLL)

Mostly Cloudy
81.0 F

Hollywood, North Perry Airport, FL (KHWO)

Light Rain
79.0 F

Pompano Beach, Pompano Beach Airpark, FL (KPMP)

Mostly Cloudy
80.0 F

West Palm Beach - Palm Beach International Airport, FL (KPBI)

Light Rain
74.0 F

Miami, Opa Locka Airport, FL (KOPF)

Mostly Cloudy
77.0 F

Miami, Miami International Airport, FL (KMIA)

Mostly Cloudy
79.0 F